sat.trackr.live / text

‹ back to catalog

GONETS-M 24

NORAD 54151 · 2022-139B

PAYLOAD ACTIVE UNKNOWN

§ Identity

Operator
Country
CIS
Launch date
2022-10-22
Launch site
VOSTO
Launch vehicle
Mass (kg)
RCS (m²)

External: N2YO · Heavens-Above · Gunter

§ Orbital elements

Epoch: 2026-09-20T22:42:56.145024Z

Period
115.86 min
Inclination
82.4942°
Eccentricity
0.0017058
Mean motion
12.42894241 rev/d
Perigee alt
1,480.9 km
Apogee alt
1,507.8 km
Semi-major
7,872.5 km
B*
2.6310e-4
RAAN
287.7851°
Arg perigee
27.5678°
Mean anomaly
332.6303°
Rev number
17,754

§ Raw data

GONETS-M 241 54151U 22139B   26263.94648316  .00000046  00000+0  26310-3 0  99972 54151  82.4942 287.7851 0017058  27.5678 332.6303 12.42894241177542

JSON: /api/v1/satellites/54151 · /tle

For live sub-satellite position, see the globe view (requires WebGL).

§ Visibility from observer

Set your observer location to see the next 7 days of passes ≥ 10°. The values pass through the URL so the page stays shareable.

No JS? Fill the form by hand. The geolocation button needs JavaScript.

§ Radio — SatNOGS DB

ModeDescriptionDownlinkUplink
FM UHF Unknown 388.500 MHz
FM UHF Unknown 387.775 MHz
FM UHF Unknown 388.687 MHz
FM UHF Unknown 388.787 MHz
FM UHF Unknown 262.910 MHz

5 transmitters · refreshed weekly from db.satnogs.org